Location: Alta
(39.2070°N, 120.8111°W)
Time: 02:27:50
(UTC+00:00)

ITAMSAT 1 - Pass Details

Date: 08 April 2023
Orbit: 782 x 797 km, 98.8° (Epoch: 29 May)

Event Time Altitude Azimuth Distance (km) Brightness Sun altitude
Exits shadow 04:57:53 - 208° (SSW) 3,178 10.7 -26.6°
Reaches altitude 10° 05:00:40 10° 226° (SW) 2,356 10.2 -27.0°
Maximum altitude 05:04:05 18° 267° (W) 1,889 10.1 -27.6°
Drops below altitude 10° 05:07:32 10° 309° (NW) 2,371 11.1 -28.1°
Sets 05:10:40 0° 328° (NNW) 3,307 11.9 -28.6°
